Location: Góry Miechowskie
(50.3599°N, 20.1803°E)
Time: 16:17:44
(UTC+00:00)

deb Explorer IX - Pass Details

Date: 19 September 2024
Orbit: 504 x 830 km, 38.7° (Epoch: 04 October)

Event Time Altitude Azimuth Distance (km) Brightness Sun altitude
Rises 19:06:45 0° 250° (WSW) 3,393 ? -22.5°
Reaches altitude 10° 19:09:40 10° 238° (WSW) 2,474 ? -22.9°
Enters shadow 19:14:11 26° 189° (S) 1,623 ? -23.5°
